FW3743 Weather Reports


time (UTC)temp
C
wind
direction
speed
KPH
gust
KPH
rain 1hr
cm
rain 24hr
cm
rain mn
cm
humidity
%
barometer
mb
20260509173436 12 0.0 0.0 0.00 0.00 0.00 91 1007.7
20260509172433 11 0.0 0.0 0.00 0.00 0.00 91 1008.0
20260509171436 11 0.0 0.0 0.00 0.00 0.00 90 1008.2
20260509170434 12 0.0 0.0 0.00 0.00 0.00 89 1008.4
20260509165436 12 0.0 0.0 0.00 0.00 0.00 88 1008.2
20260509164433 12 0.0 0.0 0.00 0.00 0.00 88 1008.7
20260509163436 11 0.0 0.0 0.00 0.00 0.00 88 1008.6
20260509162453 11 0.0 0.0 0.00 0.00 0.00 88 1008.9
20260509161436 10 0.0 0.0 0.00 0.00 0.00 88 1008.7
20260509160433 11 0.0 0.0 0.00 0.00 0.00 87 1009.1
20260509155436 11 0.0 0.0 0.00 0.00 0.00 87 1008.8
20260509154433 11 0.0 0.0 0.00 0.00 0.00 86 1009.1
20260509153536 11 0.0 0.0 0.00 0.00 0.00 85 1009.1
20260509152433 11 0.0 0.0 0.00 0.00 0.00 84 1009.4
20260509151456 11 0.0 0.0 0.00 0.03 0.00 84 1009.2
20260509150433 11 0.0 0.0 0.00 0.03 0.00 84 1009.6
20260509145456 11 0.0 0.0 0.00 0.03 0.00 84 1009.4
20260509144433 11 0.0 0.0 0.00 0.05 0.00 83 1009.7
20260509143456 11 0.0 0.0 0.00 0.05 0.00 84 1009.5
20260509142433 11 0.0 0.0 0.00 0.05 0.00 83 1009.8
20260509141456 10 0.0 0.0 0.00 0.05 0.00 84 1009.8
20260509140433 10 0.0 0.0 0.00 0.10 0.00 85 1009.8
20260509135436 10 0.0 0.0 0.00 0.13 0.00 85 1009.5
20260509134433 9 0.0 0.0 0.00 0.13 0.00 85 1010.1
20260509133436 8 0.0 0.0 0.00 0.13 0.00 85 1009.9
20260509132433 8 0.0 0.0 0.00 0.13 0.00 85 1010.2
20260509131436 8 0.0 0.0 0.00 0.13 0.00 85 1010.2
20260509130433 8 0.0 0.0 0.00 0.13 0.00 85 1010.3
20260509125436 7 0.0 0.0 0.00 0.13 0.00 85 1010.1
20260509124433 7 0.0 0.0 0.00 0.13 0.00 85 1010.2
20260509123436 7 0.0 0.0 0.00 0.13 0.00 86 1010.1
20260509122453 7 0.0 0.0 0.00 0.13 0.00 86 1010.2
20260509121436 7 0.0 0.0 0.00 0.13 0.00 86 1010.2
20260509120433 7 0.0 0.0 0.00 0.13 0.00 86 1010.5
20260509115436 6 0.0 0.0 0.00 0.13 0.00 86 1010.4
20260509114433 6 0.0 0.0 0.00 0.13 0.00 87 1010.5
20260509113457 6 0.0 0.0 0.00 0.13 0.00 87 1010.4
20260509112433 6 0.0 0.0 0.00 0.13 0.00 88 1010.4
20260509111456 6 0.0 0.0 0.00 0.13 0.00 88 1010.2
20260509110433 5 0.0 0.0 0.00 0.13 0.00 89 1010.5
20260509105436 5 0.0 0.0 0.00 0.13 0.00 90 1010.4
20260509104433 5 0.0 0.0 0.00 0.13 0.00 91 1010.7
20260509103436 5 0.0 0.0 0.00 0.13 0.00 91 1010.3
20260509102433 5 0.0 0.0 0.00 0.13 0.00 91 1010.7
20260509101436 5 0.0 0.0 0.00 0.13 0.00 91 1010.4
20260509100433 4 0.0 0.0 0.00 0.13 0.00 91 1010.6
20260509095456 4 0.0 0.0 0.00 0.13 0.00 90 1010.1
20260509094433 4 0.0 0.0 0.00 0.13 0.00 91 1010.4
20260509093436 3 0.0 0.0 0.00 0.13 0.00 91 1010.1
20260509092433 3 0.0 0.0 0.00 0.13 0.00 92 1010.3
20260509091436 3 0.0 0.0 0.00 0.13 0.00 93 1010.2
20260509090434 3 0.0 0.0 0.00 0.13 0.00 92 1010.4
20260509085436 3 0.0 0.0 0.00 0.13 0.00 92 1010.6
20260509084433 3 0.0 0.0 0.00 0.13 0.00 92 1010.7
20260509083436 3 0.0 0.0 0.00 0.13 0.00 93 1010.7
20260509082453 3 0.0 0.0 0.00 0.13 0.00 94 1010.9
20260509081456 3 0.0 0.0 0.00 0.13 0.00 95 1011.0
20260509080433 3 0.0 0.0 0.00 0.13 0.00 96 1011.1
20260509075456 3 0.0 0.0 0.00 0.13 0.00 96 1011.0
20260509074433 3 0.0 0.0 0.00 0.13 0.00 95 1011.2
20260509073436 3 0.0 0.0 0.00 0.13 0.00 94 1011.0
20260509072433 3 0.0 0.0 0.00 0.13 0.00 94 1011.1
20260509071436 3 0.0 0.0 0.00 0.13 0.00 94 1011.1
20260509070433 3 0.0 0.0 0.00 0.13 0.00 94 1011.2
20260509065436 3 0.0 0.0 0.00 0.13 0.00 93 1011.0
20260509064433 3 0.0 0.0 0.00 0.13 0.00 92 1011.3
20260509063436 3 0.0 0.0 0.00 0.13 0.00 91 1011.4
20260509062433 4 0.0 0.0 0.00 0.13 0.00 90 1011.5
20260509061436 4 0.0 0.0 0.00 0.18 0.00 88 1011.3
20260509060433 5 0.0 0.0 0.00 0.20 0.00 88 1011.8
20260509055436 5 0.0 0.0 0.00 0.20 0.00 87 1011.6
20260509054433 5 0.0 0.0 0.00 0.20 0.00 88 1011.9
20260509053436 4 0.0 0.0 0.00 0.20 0.00 89 1011.8
20260509052433 4 0.0 0.0 0.00 0.20 0.00 89 1012.2
20260509051456 4 0.0 0.0 0.00 0.20 0.00 91 1012.0
20260509050453 3 0.0 0.0 0.00 0.20 0.00 92 1012.3
20260509045436 3 0.0 0.0 0.00 0.20 0.00 93 1012.1
20260509044433 3 0.0 0.0 0.00 0.20 0.00 94 1012.3
20260509043436 3 0.0 0.0 0.00 0.20 0.00 95 1012.2
20260509042433 3 0.0 0.0 0.00 0.20 0.00 94 1012.4
20260509041436 3 0.0 0.0 0.00 0.20 0.00 94 1012.2
20260509040433 3 0.0 0.0 0.00 0.20 0.00 94 1012.4
20260509035436 3 0.0 0.0 0.00 0.20 0.20 93 1012.2
20260509034433 3 0.0 0.0 0.00 0.20 0.20 93 1012.4
20260509033436 3 0.0 0.0 0.00 0.20 0.20 93 1012.3
20260509032432 3 0.0 0.0 0.00 0.20 0.20 92 1012.5
20260509031436 3 0.0 0.0 0.00 0.20 0.20 91 1012.1
20260509030433 3 0.0 0.0 0.00 0.20 0.20 91 1012.6
20260509025436 3 0.0 0.0 0.00 0.20 0.20 90 1012.3
20260509024433 4 0.0 0.0 0.00 0.20 0.20 90 1012.6
20260509023436 4 0.0 0.0 0.00 0.20 0.20 90 1012.3
20260509022453 4 0.0 0.0 0.00 0.20 0.20 89 1012.6
20260509021436 4 0.0 0.0 0.00 0.20 0.20 88 1012.5
20260509020432 5 0.0 0.0 0.00 0.20 0.20 87 1012.6
20260509015436 5 0.0 0.0 0.00 0.20 0.20 86 1012.4
20260509014453 5 0.0 0.0 0.00 0.20 0.20 84 1012.4
20260509013436 5 0.0 0.0 0.00 0.20 0.20 82 1012.1
20260509012432 5 0.0 0.0 0.00 0.20 0.20 80 1012.1
20260509011436 5 0.0 0.0 0.00 0.20 0.20 79 1011.7
20260509010433 6 0.0 0.0 0.00 0.20 0.20 77 1011.9
20260509005436 6 0.0 0.0 0.00 0.20 0.20 75 1011.5
20260509004433 7 0.0 0.0 0.00 0.20 0.20 74 1011.7
20260509003436 7 0.0 0.0 0.00 0.20 0.20 71 1011.4
20260509002432 7 0.0 0.0 0.00 0.20 0.20 68 1011.4
20260509001436 8 0.0 0.0 0.00 0.20 0.20 64 1011.4
20260509000433 9 0.0 0.0 0.00 0.20 0.20 62 1011.4
20260508235516 10 0.0 0.0 0.00 0.20 0.20 57 1011.2
20260508234433 11 0.0 0.0 0.00 0.20 0.20 52 1011.0
20260508233456 11 0.0 0.0 0.00 0.20 0.20 46 1011.0
20260508232433 12 0.0 0.0 0.00 0.20 0.20 45 1010.8
20260508231436 12 0.0 0.0 0.00 0.20 0.20 45 1010.9
20260508230433 12 0.0 0.0 0.00 0.20 0.20 46 1011.0
20260508225436 12 0.0 0.0 0.00 0.20 0.20 44 1011.0
20260508224452 13 0.0 0.0 0.00 0.20 0.20 44 1011.1
20260508223436 13 0.0 0.0 0.00 0.20 0.20 43 1011.2
20260508222453 13 0.0 0.0 0.00 0.20 0.20 47 1011.4
20260508221436 13 0.0 0.0 0.00 0.20 0.20 48 1011.2
20260508220432 13 0.0 0.0 0.00 0.20 0.20 50 1011.5
20260508215436 13 0.0 0.0 0.00 0.20 0.20 50 1011.3
20260508214513 13 0.0 0.0 0.00 0.20 0.20 48 1011.5
20260508213456 13 286 0.0 1.6 0.00 0.20 0.20 50 1011.4
20260508212433 13 0.0 0.0 0.00 0.20 0.20 52 1011.4
20260508211436 13 286 0.0 1.6 0.00 0.20 0.20 52 1011.2
20260508210433 12 39 0.0 8.0 0.00 0.20 0.20 52 1011.4
20260508205436 13 336 0.0 3.2 0.00 0.20 0.20 54 1011.5
20260508204513 11 0.0 0.0 0.00 0.20 0.20 56 1011.7
20260508203436 12 0.0 0.0 0.00 0.20 0.20 56 1011.5
20260508202453 13 0.0 0.0 0.00 0.20 0.20 58 1011.7
20260508201436 12 0.0 0.0 0.00 0.20 0.20 60 1011.6
20260508200433 11 0.0 0.0 0.00 0.20 0.20 60 1011.9
20260508195436 11 0.0 0.0 0.00 0.20 0.20 58 1011.9
20260508194432 12 341 3.2 11.3 0.00 0.20 0.20 57 1012.2
20260508193437 12 0.0 0.0 0.00 0.20 0.20 59 1012.0
20260508192433 12 0.0 0.0 0.00 0.20 0.20 62 1012.1
20260508191436 11 0.0 0.0 0.00 0.20 0.20 64 1012.2
20260508190432 11 0.0 0.0 0.00 0.20 0.20 66 1012.3
20260508185436 12 0.0 0.0 0.00 0.20 0.20 67 1012.2
20260508184433 11 0.0 0.0 0.00 0.20 0.20 68 1012.4
20260508183436 11 354 0.0 1.6 0.00 0.20 0.20 67 1012.6
20260508182433 11 320 0.0 3.2 0.00 0.20 0.20 68 1012.6
20260508181456 10 275 0.0 11.3 0.00 0.20 0.20 68 1012.6
20260508180433 11 287 0.0 1.6 0.00 0.20 0.20 71 1012.8
20260508175436 10 309 3.2 17.7 0.00 0.20 0.20 74 1012.4
20260508174452 10 0.0 0.0 0.00 0.20 0.20 74 1012.8